Weather Roundup
Issued by NWS

Home | Current Version | Previous Version | Graphics & Text | Print | Product List | Glossary Off
Versions: 1 2 3 4 5 6 7 8 9 10 11 12 13 14 15 16 17 18 19 20 21 22 23 24 25 26 27 28 29 30 31 32 33 34 35 36 37 38 39 40 41 42 43 44 45 46 47 48 49 50

000
NZUS93 KARX 032110
HRRWXR

CURRENT HOURLY OBSERVATIONS ACROSS
MUCH OF THE UPPER MISSISSIPPI VALLEY
NATIONAL WEATHER SERVICE LA CROSSE WI
400 PM CDT FRI JUL 03 2015


...SOUTHEAST MINNESOTA...


CITY           SKY/WX    TMP DP  RH WIND       PRES   REMARKS
ROCHESTER      SUNNY     76  54  46 VRB5      29.96F
ROCHESTER/MAYO FAIR      76  52  43 W10       29.95F
WINONA         SUNNY     77  55  47 SW6       29.94F
AUSTIN         SUNNY     79  54  41 W3        29.96F
ALBERT LEA     SUNNY     77  52  41 W3        29.97S
DODGE CENTER   SUNNY     75  55  50 SW6       29.96F
PRESTON        SUNNY     75  55  51 CALM      29.97F
OWATONNA       SUNNY     77  50  38 SW7       29.96S
FARIBAULT      SUNNY     77  54  44 SW7       29.95F
$$

...ELSEWHERE IN MINNESOTA...


CITY           SKY/WX    TMP DP  RH WIND       PRES   REMARKS
MINNEAPOLIS    CLOUDY    79  56  45 SW10      29.93S
INTNL FALLS    SUNNY     78  56  46 N7G17     29.89S
DULUTH         MOSUNNY   80  60  50 W9        29.87F SMOKE
RED WING       SUNNY     79  54  41 W7        29.92S
REDWOOD FALLS  SUNNY     80  57  45 VRB5      29.94F
MANKATO        SUNNY     75  54  46 W8        29.95F
WORTHINGTON    SUNNY     75  55  50 W6        29.98F
FAIRMONT       SUNNY     77  46  33 SW5       29.96F
$$

...SOUTHWEST WISCONSIN...


CITY           SKY/WX    TMP DP  RH WIND       PRES   REMARKS
LA CROSSE      MOSUNNY   78  57  48 VRB5      29.93F
PRAIRIE DU CHI MOSUNNY   75  54  47 SW5       29.95F
BOSCOBEL       SUNNY     77  57  50 W6        29.95F
LONE ROCK      SUNNY     76  51  41 CALM      29.96S
PLATTEVILLE    SUNNY     74  50  43 W5        29.96F
FORT MC COY    SUNNY     78  52  40 SW6       29.95S
CAMP DOUGLAS   SUNNY     78  60  54 VRB7      29.94F
VIROQUA        FAIR      75  55  50 W3        29.97S
WIS DELLS      SUNNY     75  51  43 CALM      29.95F
$$

...ELSEWHERE IN WISCONSIN...


CITY           SKY/WX    TMP DP  RH WIND       PRES   REMARKS
MILWAUKEE      PTSUNNY   70  52  52 E10       29.95F
MADISON        MOSUNNY   76  53  44 VRB5      29.94F
GREEN BAY      PTSUNNY   75  56  51 S7        29.92F
EAU CLAIRE     SUNNY     77  56  48 W8        29.92F
BLACK RVR FLS  FAIR      78  53  41 W5        29.93F
MEDFORD        SUNNY     74  56  53 SW9G16    29.93F
WAUSAU         SUNNY     76  54  46 W9        29.91F
WIS RAPIDS     MOSUNNY   77  54  44 SW8       29.94F
MARSHFIELD     MOSUNNY   76  55  48 SW7       29.93F
RICE LAKE      MOSUNNY   77  58  51 SW8G16    29.93S
$$

...NORTHEAST IOWA...


CITY           SKY/WX    TMP DP  RH WIND       PRES   REMARKS
DECORAH          N/A    N/A N/A N/A MISG        N/A
MASON CITY     SUNNY     77  58  51 W6        29.99S
CHARLES CITY   SUNNY     75  57  53 W5        29.98S
OELWEIN        SUNNY     75  55  50 CALM      29.97F
$$

...ELSEWHERE IN IOWA...


CITY           SKY/WX    TMP DP  RH WIND       PRES   REMARKS
DES MOINES     SUNNY     79  52  38 CALM      29.96F
IOWA CITY      SUNNY     77  59  53 CALM      29.96F
FORT DODGE     SUNNY     77  55  47 W6        29.99F
$$

...NORTHERN ILLINOIS...


CITY           SKY/WX    TMP DP  RH WIND       PRES   REMARKS
CHICAGO-OHARE  PTSUNNY   76  54  46 NE7       29.93F
CHICAGO-MIDWAY PTSUNNY   76  54  46 E8        29.93F
MOLINE         SUNNY     79  58  48 N3        29.94F
ROCKFORD       MOSUNNY   77  55  46 S6        29.95F
PEORIA         MOSUNNY   82  61  48 VRB7      29.93F
$$

NOTE: "FAIR" INDICATES FEW OR NO CLOUDS BELOW 12,000 FEET WITH NO
SIGNIFICANT WEATHER AND/OR OBSTRUCTIONS TO VISIBILITY. WIND
SPEEDS ARE IN MILES-PER-HOUR.



USA.gov is the U.S. government's official web portal to all federal, state and local government web resources and services.